When you browse on this site, cookies collect data to enhance your experience and personalize the content and advertising you see.
Visit our Privacy Policy to learn more. By continuing to use the site, you agree to this use of cookies and data.

Hourly Weather Zorya

Today, 25 September, Friday

Time Temperature Precipitation Wind Pressure Humidity
00:00 +19°C° 0 mm 4 mps 751 mmHg 43%
01:00 +18°C° 0 mm 4 mps 751 mmHg 45%
02:00 +17°C° 0 mm 4 mps 751 mmHg 48%
03:00 +17°C° 0 mm 4 mps 751 mmHg 53%
04:00 +15°C° 0 mm 4 mps 751 mmHg 57%
05:00 +15°C° 0 mm 4 mps 751 mmHg 60%
06:00 +15°C° 0 mm 4 mps 751 mmHg 64%
07:00 +16°C° 0 mm 5 mps 751 mmHg 60%
08:00 +19°C° 0 mm 5 mps 751 mmHg 56%
09:00 +20°C° 0 mm 6 mps 751 mmHg 51%
10:00 +22°C° 0 mm 6 mps 751 mmHg 46%
11:00 +24°C° 0 mm 6 mps 750 mmHg 41%
12:00 +26°C° 0 mm 6 mps 750 mmHg 36%
13:00 +27°C° 0 mm 6 mps 750 mmHg 36%
14:00 +27°C° 0 mm 5 mps 750 mmHg 36%
15:00 +28°C° 0 mm 5 mps 750 mmHg 35%
16:00 +27°C° 0 mm 4 mps 750 mmHg 37%
17:00 +26°C° 0 mm 4 mps 749 mmHg 39%
18:00 +25°C° 0 mm 4 mps 749 mmHg 41%
19:00 +23°C° 0 mm 4 mps 749 mmHg 41%
20:00 +22°C° 0 mm 4 mps 749 mmHg 42%
21:00 +21°C° 0 mm 5 mps 749 mmHg 43%
22:00 +20°C° 0 mm 4 mps 749 mmHg 45%
23:00 +20°C° 0 mm 4 mps 749 mmHg 46%

Tomorrow, 26 September, Saturday

Time Temperature Precipitation Wind Pressure Humidity
00:00 +19°C° 0 mm 4 mps 748 mmHg 48%
01:00 +19°C° 0 mm 4 mps 748 mmHg 49%
02:00 +17°C° 0 mm 5 mps 748 mmHg 49%
03:00 +17°C° 0 mm 5 mps 748 mmHg 50%
04:00 +16°C° 0 mm 5 mps 748 mmHg 50%
05:00 +16°C° 0 mm 5 mps 748 mmHg 49%
06:00 +16°C° 0 mm 5 mps 748 mmHg 49%
07:00 +17°C° 0 mm 5 mps 748 mmHg 46%
08:00 +19°C° 0 mm 6 mps 748 mmHg 43%
09:00 +20°C° 0 mm 7 mps 748 mmHg 40%
10:00 +22°C° 0 mm 7 mps 748 mmHg 37%
11:00 +24°C° 0 mm 7 mps 748 mmHg 34%
12:00 +27°C° 0 mm 7 mps 748 mmHg 31%
13:00 +27°C° 0 mm 7 mps 748 mmHg 28%
14:00 +28°C° 0 mm 7 mps 748 mmHg 25%
15:00 +29°C° 0 mm 7 mps 747 mmHg 22%
16:00 +28°C° 0 mm 6 mps 747 mmHg 24%
17:00 +27°C° 0 mm 6 mps 747 mmHg 25%
18:00 +26°C° 0 mm 5 mps 747 mmHg 26%
19:00 +26°C° 0 mm 6 mps 747 mmHg 29%
20:00 +24°C° 0 mm 6 mps 748 mmHg 32%
21:00 +24°C° 0 mm 7 mps 748 mmHg 35%
22:00 +23°C° 0 mm 8 mps 748 mmHg 37%
23:00 +22°C° 0 mm 8 mps 748 mmHg 39%

Day after tomorrow, 27 September, Sunday

Time Temperature Precipitation Wind Pressure Humidity
00:00 +22°C° 0 mm 8 mps 748 mmHg 41%
01:00 +21°C° 0 mm 8 mps 748 mmHg 44%
02:00 +20°C° 0 mm 8 mps 748 mmHg 47%
03:00 +18°C° 0 mm 8 mps 749 mmHg 51%
04:00 +17°C° 0 mm 8 mps 749 mmHg 53%
05:00 +17°C° 0 mm 8 mps 749 mmHg 56%
06:00 +16°C° 0 mm 8 mps 749 mmHg 59%
07:00 +16°C° 0 mm 8 mps 749 mmHg 57%
08:00 +17°C° 0 mm 8 mps 750 mmHg 56%
09:00 +18°C° 0 mm 9 mps 750 mmHg 54%
10:00 +21°C° 0 mm 8 mps 750 mmHg 50%
11:00 +22°C° 0 mm 8 mps 750 mmHg 46%
12:00 +24°C° 0 mm 8 mps 750 mmHg 41%
13:00 +26°C° 0 mm 7 mps 750 mmHg 40%
14:00 +27°C° 0 mm 7 mps 750 mmHg 38%
15:00 +28°C° 0 mm 6 mps 750 mmHg 36%
16:00 +27°C° 0.2 mm 6 mps 750 mmHg 39%
17:00 +27°C° 0.2 mm 5 mps 750 mmHg 41%
18:00 +26°C° 0.2 mm 5 mps 750 mmHg 43%
19:00 +25°C° 0.3 mm 5 mps 751 mmHg 47%
20:00 +23°C° 0.3 mm 4 mps 751 mmHg 52%
21:00 +22°C° 0.3 mm 4 mps 751 mmHg 56%
22:00 +21°C° 0.1 mm 4 mps 751 mmHg 57%
23:00 +21°C° 0.1 mm 4 mps 752 mmHg 59%

28 September, Monday

Time Temperature Precipitation Wind Pressure Humidity
00:00 +20°C° 0.1 mm 4 mps 752 mmHg 60%
01:00 +20°C° 0 mm 3 mps 752 mmHg 62%
02:00 +20°C° 0 mm 3 mps 752 mmHg 63%
03:00 +19°C° 0 mm 3 mps 752 mmHg 65%
04:00 +19°C° 0 mm 3 mps 753 mmHg 67%
05:00 +18°C° 0 mm 3 mps 753 mmHg 69%
06:00 +17°C° 0 mm 3 mps 754 mmHg 71%
07:00 +18°C° 0 mm 4 mps 754 mmHg 66%
08:00 +19°C° 0 mm 4 mps 754 mmHg 62%
09:00 +20°C° 0 mm 4 mps 754 mmHg 57%
10:00 +22°C° 0 mm 4 mps 754 mmHg 53%
11:00 +25°C° 0 mm 4 mps 754 mmHg 50%
12:00 +26°C° 0 mm 3 mps 754 mmHg 46%
13:00 +27°C° 0 mm 3 mps 754 mmHg 44%
14:00 +28°C° 0 mm 3 mps 754 mmHg 41%
15:00 +29°C° 0 mm 3 mps 754 mmHg 38%
16:00 +28°C° 0 mm 3 mps 754 mmHg 41%
17:00 +27°C° 0 mm 2 mps 754 mmHg 44%
18:00 +26°C° 0 mm 2 mps 754 mmHg 46%
19:00 +25°C° 0 mm 3 mps 754 mmHg 47%
20:00 +24°C° 0 mm 3 mps 753 mmHg 47%
21:00 +24°C° 0 mm 3 mps 753 mmHg 47%
22:00 +22°C° 0 mm 4 mps 753 mmHg 47%
23:00 +22°C° 0 mm 5 mps 753 mmHg 46%

29 September, Tuesday

Time Temperature Precipitation Wind Pressure Humidity
00:00 +22°C° 0 mm 6 mps 753 mmHg 46%
01:00 +21°C° 0 mm 6 mps 753 mmHg 49%
02:00 +20°C° 0 mm 7 mps 753 mmHg 52%
03:00 +18°C° 0 mm 7 mps 752 mmHg 55%
04:00 +18°C° 0 mm 7 mps 752 mmHg 58%
05:00 +17°C° 0 mm 7 mps 752 mmHg 61%
06:00 +16°C° 0 mm 7 mps 752 mmHg 64%
07:00 +17°C° 0 mm 8 mps 752 mmHg 62%
08:00 +17°C° 0 mm 8 mps 752 mmHg 59%
09:00 +18°C° 0 mm 8 mps 752 mmHg 57%
10:00 +20°C° 0 mm 8 mps 752 mmHg 53%
11:00 +21°C° 0 mm 8 mps 751 mmHg 49%
12:00 +23°C° 0 mm 8 mps 751 mmHg 45%
13:00 +24°C° 0 mm 8 mps 751 mmHg 43%
14:00 +26°C° 0 mm 7 mps 750 mmHg 41%
15:00 +27°C° 0 mm 7 mps 750 mmHg 39%
16:00 +26°C° 0 mm 7 mps 750 mmHg 38%
17:00 +26°C° 0 mm 7 mps 749 mmHg 36%
18:00 +26°C° 0 mm 7 mps 749 mmHg 35%
19:00 +24°C° 0 mm 7 mps 749 mmHg 35%
20:00 +24°C° 0 mm 7 mps 749 mmHg 35%
21:00 +24°C° 0 mm 8 mps 749 mmHg 35%
22:00 +23°C° 0 mm 7 mps 749 mmHg 38%
23:00 +22°C° 0 mm 7 mps 748 mmHg 42%

30 September, Wednesday

Time Temperature Precipitation Wind Pressure Humidity
00:00 +22°C° 0 mm 7 mps 748 mmHg 45%
01:00 +21°C° 0.1 mm 7 mps 748 mmHg 47%
02:00 +20°C° 0.1 mm 8 mps 748 mmHg 50%
03:00 +18°C° 0.1 mm 8 mps 748 mmHg 52%
04:00 +17°C° 0.1 mm 8 mps 748 mmHg 57%
05:00 +17°C° 0.1 mm 8 mps 748 mmHg 62%
06:00 +16°C° 0.1 mm 7 mps 747 mmHg 67%
07:00 +16°C° 0.2 mm 7 mps 748 mmHg 67%
08:00 +16°C° 0.2 mm 7 mps 748 mmHg 68%
09:00 +17°C° 0.2 mm 7 mps 748 mmHg 68%
10:00 +17°C° 0.4 mm 7 mps 748 mmHg 68%
11:00 +17°C° 0.4 mm 6 mps 748 mmHg 68%
12:00 +17°C° 0.4 mm 5 mps 748 mmHg 68%
13:00 +17°C° 0.2 mm 5 mps 748 mmHg 71%
14:00 +17°C° 0.2 mm 6 mps 748 mmHg 75%
15:00 +17°C° 0.2 mm 6 mps 748 mmHg 78%
16:00 +17°C° 0 mm 5 mps 748 mmHg 79%
17:00 +17°C° 0 mm 5 mps 748 mmHg 80%
18:00 +18°C° 0 mm 4 mps 748 mmHg 80%
19:00 +18°C° 0.1 mm 4 mps 748 mmHg 80%
20:00 +17°C° 0.1 mm 5 mps 749 mmHg 81%
21:00 +17°C° 0.1 mm 5 mps 749 mmHg 81%
22:00 +17°C° 0.1 mm 4 mps 749 mmHg 81%
23:00 +17°C° 0.1 mm 4 mps 749 mmHg 82%
Show more